Погода в Ургуте

Узбекистан     39°24′31″N   67°14′36″E
В апреле 2022 года жителям России запретили посещать сайт meteo.paraplan.net по решению Генеральной прокуратуры. Аудитория сайта уменьшилась в 10 раз. Владельцы сайта не видят смысла в поддержке погодного сервера в таких условиях. Сайт будет закрыт в октябре.
темп.,
°C
ветер,
м/с
пор.,
м/с
влажн.,
%
обл.,
%
осадки,
мм/ч
давл.,
гПа
погр.,
м
3 октября, пн
пн323:00+13в01285 0.0 101512
02:00+12ююз113195 0.0 101412
05:00+12ююз113656 0.0 101511
08:00+14зсз113349 0.0 1016107
11:00+19сз242212 0.0 10151144
14:00+22сз46183 0.0 10142032
17:00+21з22190 0.0 10151776
20:00+15всв12280 0.0 101818
4 октября, вт
вт423:00+13ююз11290 0.0 101811
02:00+12юв11310 0.0 101811
05:00+12ююв11330 0.0 101811
08:00+16юв11270 0.0 101959
11:00+21ссз23190 0.0 10181420
14:00+24ссз55150 0.0 10172399
17:00+23ссз54160 0.0 10181449
20:00+15ссв25260 0.0 102192
5 октября, ср
ср523:00+13зюз22310 0.0 102118
02:00+12ююз11330 0.0 102111
05:00+11св11350 0.0 102111
08:00+13св11300 0.0 102293
11:00+19ссв32190 0.0 1020733
14:00+22ссв64150 0.0 10191290
17:00+19св55170 0.0 1019835
20:00+13св27220 0.0 1021191
6 октября, чт
чт623:00+11юз22260 0.0 102119
02:00+10юз11280 0.0 102011
05:00+10юз11300 0.0 102011
08:00+12св01250 0.0 102092
11:00+19ссв22170 0.0 1019618
14:00+22ссв54140 0.0 10171198
17:00+20св54160 0.0 1018742
20:00+14юв01240 0.0 102011
7 октября, пт
пт723:00+13юз11260 0.0 102011
02:00+12юв11260 0.0 101911
05:00+12вюв11260 0.0 101911
08:00+16ю11220 0.0 102045
11:00+21ссз21160 0.0 1019712
14:00+24с43120 0.0 10181947
17:00+23ссв55120 0.0 10181270
20:00+16ююз11200 0.0 102112